Location: North Evanston
(42.0634°N, 87.6976°W)
Time: 11:37:18
(UTC+00:00)

Vanguard 2 Rocket - Pass Details

Date: 15 May 2026
Orbit: 553 x 3286 km, 32.9° (Epoch: 11 June)

Event Time Altitude Azimuth Distance (km) Brightness Sun altitude
Rises 19:43:57 0° 267° (W) 6,149 11.6 56.2°
Reaches altitude 10° 19:47:36 10° 264° (W) 5,419 11.5 55.6°
Maximum altitude 20:04:52 61° 190° (S) 3,539 11.2 52.9°
Drops below altitude 10° 20:23:55 10° 116° (ESE) 5,902 10.9 49.7°
Sets 20:28:06 0° 113° (ESE) 6,700 11.0 49.0°
